Погода Нерчинский Завод

Погода Нерчинский Завод : погода сейчас, прогноз погоды и архив. Всё, что Вы хотите узнать о погоде Нерчинский Завод!

Хотите узнать прогноз погоды Нерчинский Завод? Тогда Вам сюда: Погода Нерчинский Завод

Поиск расширенной информации на нашем сайте:

Другие новости

Новости СМИ2

Главная страница сайта

Новости сайта

03.07.2017

Напоминаем, что на нашем специализированном сайте Метеоцентр.Азия вы можете получить высокодетализированные автоматические прогнозы погоды по пунктам России, СНГ и мира в авиационном формате (включающие направление и скорость ветра, видимость, явления погоды, количество и форму облачности, нижнюю и верхнюю границу облачности).


Погода Нерчинский Завод - сегодня

Время (UTC), дата Ветер
(°,м/с) 
Видим.   Явления Облачность Т
(°С)
Тd
(°С)
f(%) Тe
(°С)
Pmin
(гПа)
dP
(гПа)
Po
(мм)
O2
(г/м3)
Тmin Tmax R s Состояние
почвы
06 19.04.18 320 (СЗ) 20000 м    10/0 средняя, верхняя 
[Ac trans|Cs]
+11.6 -6.4 28 +11  1009.9  -0.9  704  273           
09 19.04.18 340 (С) 20000 м    10/0 средняя 
[As op]
+6.9 -1.3 56 +7  1009.7  -1.4  703  276           
15 19.04.18 тихо ()   н/о  слаб. снег  10/0 средняя 
[As op]
+1.9 +0.7 92 +2  1011.4  -0.5  703  281           
18 19.04.18 330 (СЗ) н/о  снег  10/0 средняя 
[As op]
+1.5 +0.5 93 1010.6  -0.8  702  281           
21 19.04.18 310 (СЗ) 20000 м  {дождь}  10/10 1000 м 
[Sc]
+1.7 -0.1 88 1011.3  0.6  703  281           
00 20.04.18 330 (СЗ) 20000 м  {снег, дождь}  10/10 1000 м 
[Sc]
+2.6 -0.7 79 +1  1013.1  704  281  +1.5       
03 20.04.18 350 (С) 4{11}  20000 м    8/1 600 м верхняя 
[Cu hum|Cc]
+7.1 -5.2 41 +6  1012.5  0.5  705  277           
12 20.04.18 320 (СЗ) 2{11}  н/о    10/0 верхняя 
[Ci fib]
+5.5 -14.6 22 +5  1017.5  2.8  708  281    +9.1       
15 20.04.18 320 (СЗ) н/о    ясно 
+2.8 -16.7 22 +2  1021  2.5  710  284           
18 20.04.18 тихо ()   н/о    ясно 
-3.2 -12.2 50 -3  1024.8  1.9  711  291           
21 20.04.18 тихо ()   20000 м    ясно 
-5.7 -11.6 63 -6  1027.9  2.2  713  294           
03 21.04.18 290 (З) 20000 м    ясно 
+8.5 -14.7 18 +8  1025.6  -0.5  714  280           
06 21.04.18 280 (З) 20000 м    ясно 
+11.3 -15.9 13 +12  1023.1  -1.6  713  277           
09 21.04.18 290 (З) 20000 м    ясно 
+12.1 -14 15 +12  1021.8  -1  712  276           
12 21.04.18 тихо ()   н/о    ясно 
+4.1 -10 35 +4  1025.1  1.1  713  284    +12.5       
15 21.04.18 тихо ()   н/о    ясно 
+1.3 -10.1 42 +1  1026.8  0.9  713  287           
18 21.04.18 тихо ()   н/о    ясно 
-0.8 -9.7 51 -1  1028.5  714  289           
21 21.04.18 тихо ()   20000 м    ясно 
-3 -9.8 59 -3  1030.1  0.9  715  292           
03 22.04.18 010 (С) 20000 м    ясно 
+16 -10.3 15 +17  1024.6  -1.2  715  273           
06 22.04.18 280 (З) 20000 м    8/8 1000 м 
[Cu hum]
+18.9 -10.7 12 +20  1021.4  -2.3  713  270           
09 22.04.18 280 (З) 20000 м    6/6 1000 м 
[Cu hum]
+18.2 -10.7 13 +19  1020.2  -1.3  712  270           
15 22.04.18 070 (В) н/о    3/0 верхняя 
[Ci fib]
+6.6 -9.5 31 +8  1024.4  0.8  713  281           
18 22.04.18 тихо ()   н/о    ясно 
+2.2 -8.8 44 +2  1026.1  0.4  713  286           
21 22.04.18 тихо ()   н/о    ясно 
-0.1 -9.2 50 -0  1027.4  0.6  714  288           
00 23.04.18 070 (В) 20000 м    10/0 верхняя 
[Cc]
+9.3 -8.5 28 +10  1024.5  -0.2  713  279  -0.9         
Время (UTC), дата Ветер
(°,м/с) 
Видим.   Явления Облачность Т
(°С)
Тd
(°С)
f(%) Тe
(°С)
Pmin
(гПа)
dP
(гПа)
Po
(мм)
O2
(г/м3)
Тmin Tmax R s Состояние
почвы

Для получения пояснительной информации подведите курсор к названию столбца.

ПОГОДА Нерчинский Завод - архив

Всё, что Вы хотите узнать о погоде Нерчинский Завод - удобно и подробно!

Выберите нужную дату (начиная с 1 января 2015* года) и нажмите кнопку "Найти".
Будут отображены архивные сводки погоды по пункту Нерчинский Завод, начиная с указанной даты.


Отображать данные в формате CSV (для использования в таблицах Excel)


Внимание! Наш архив погоды предназначен исключительно для личного некоммерческого использования в познавательных целях. Если Вам необходимы официальные справки о состоянии погоды (для производственных, юридических, коммерческих и т.п. целей), обращайтесь в органы Росгидромета.

*Примечание: данная дата относится к архиву по метеостанциям СССР (Россия, СНГ, Балтия).
Архив по метеостанциям Зарубежной Европы и Азии (кроме Китая) хранится 10 дней, по другим регионам земного шара (Китай, Африка, Америка, Австралия, Океания) - 1 день.

Нерчинский Завод - район местоположения метеостанции


Название, широта, долгота, высота метеостанции:
Нерчинский Завод 51.3°ш. 119.6°д. 619 м над ур. моря [Российская Федерация]

Дополнительная информация

В oтличие oт бoльшинства пoгoдных сайтoв мы публикуем пoдрoбную метеoинфoрмацию в детальнoм прoфессиoнальнoм фoрмате.

Характеристики температуры и влажнoсти вoздуха измеряются на высoте 2 м в тени вдали oт зданий и деревьев.
Скoрoсть ветра измеряется на высoте 10 м (на урoвне рoста челoвека скoрoсть ветра ниже в 1.5-2 раза). Если метеoстанция нахoдится в гoрoде или в лесу, тo скoрoсть ветра занижена на 2-4 м/с пo сравнению с oткрытым местoм. Скoрoсть ветра над акватoриями крупных рек и oзёр, а также на вершинах хoлмoв на 2-5 м/с выше, чем в oбычных услoвиях.
Атмoсфернoе давление в разных тoчках местнoсти мoжет значительнo oтличаться oт давления на метеoстанции, в зависимoсти oт услoвий рельефа (при пoдъёме на 10 м давление пoнижается примернo на 1 мм рт.ст.).